This demonstration page uses our WeatherBlox Daily Observations layout. Learn more.

Left ArrowRight Arrow

Hourly Observations for May 23, 2017

Temp ( °F °C ) Dew Point ( °F °C ) Humidity (%) Winds ( mph kmh ) Pressure ( in mb ) Visibility ( mi km ) Precip ( " mm )
12:53 am 00:53 Cloudy with Light Rain 68 20 68 20 100 100 Calm 29.91 1013 5 8 0.01 0.25
1:35 am 01:35 Cloudy with Light Rain 68 20 68 20 100 100 Calm 29.88 1012 6 10 0.02 0.51
1:43 am 01:43 Cloudy with Light Rain 68 20 68 20 100 100 Calm 29.88 1012 7 11 0.03 0.76
1:53 am 01:53 Cloudy with Light Rain 69 20.6 69 20.6 100 100 ESE 3 6 29.89 1012 7 11 0.03 0.76
2:08 am 02:08 Cloudy with Light Rain 68 20 68 20 100 100 Calm 29.88 1012 7 11 0.00 0.03
2:16 am 02:16 Cloudy with Light Rain 69 20.6 69 20.6 100 100 Calm 29.88 1012 7 11 0.00 0.03
2:53 am 02:53 Cloudy 69 20.6 69 20.6 100 100 Calm 29.87 1011 10 16 0.00 0.03
3:10 am 03:10 Cloudy 69 20.6 68 20 96 96 Calm 29.85 1011 10 16 0.00 0.00
3:45 am 03:45 Cloudy with Light Rain 68 20 68 20 100 100 Calm 29.85 1011 6 10 0.01 0.25
3:53 am 03:53 Cloudy with Light Rain 68 20 68 20 100 100 SSW 3 6 29.85 1011 4 6 0.01 0.25
4:18 am 04:18 Cloudy 68 20 68 20 100 100 Calm 29.83 1010 10 16 0.00 0.03
4:44 am 04:44 Cloudy 68 20 68 20 100 100 SSW 3 6 29.83 1010 9 14 0.00 0.03
4:53 am 04:53 Cloudy 68 20 68 20 100 100 SSW 3 6 29.84 1011 8 13 0.00 0.03
5:10 am 05:10 Cloudy with Rain 68 20 68 20 100 100 S 3 6 29.83 1010 4 6 0.02 0.51
5:18 am 05:18 Cloudy with Light Rain 68 20 68 20 100 100 Calm 29.83 1010 5 8 0.03 0.76
5:29 am 05:29 Cloudy with Light Rain 68 20 68 20 100 100 Calm 29.83 1010 5 8 0.04 1.02
5:36 am 05:36 Cloudy with Light Rain 68 20 68 20 100 100 Calm 29.83 1010 5 8 0.05 1.27
5:53 am 05:53 Cloudy with Light Rain 68 20 68 20 100 100 S 3 6 29.82 1010 6 10 0.06 1.52
6:53 am 06:53 Cloudy with Light Rain 68 20 68 20 100 100 S 3 6 29.82 1010 3 5 0.07 1.78
7:11 am 07:11 Cloudy with Light Rain 68 20 68 20 100 100 S 5 7 29.80 1009 9 14 0.00 0.03
7:53 am 07:53 Cloudy with Light Rain 68 20 68 20 100 100 SSW 6 9 29.83 1010 6 10 0.02 0.51
8:53 am 08:53 Cloudy with Light Rain 67 19.4 67 19.4 100 100 SSW 6 9 29.83 1010 7 11 0.05 1.27
9:53 am 09:53 Cloudy with Light Rain 68 20 68 20 100 100 S 7 11 29.80 1009 10 16 0.05 1.27
10:53 am 10:53 Cloudy with Light Rain 68 20 68 20 100 100 SSW 5 7 29.81 1010 10 16 0.02 0.51
11:09 am 11:09 Cloudy with Light Rain 68 20 67 19.4 96 96 SW 6 9 29.80 1009 10 16 0.01 0.25
11:29 am 11:29 Cloudy with Light Rain 68 20 68 20 100 100 SSW 3 6 29.80 1009 9 14 0.02 0.51
11:36 am 11:36 Cloudy with Light Rain 68 20 67 19.4 96 96 SSW 5 7 29.80 1009 7 11 0.02 0.51
11:53 am 11:53 Cloudy with Light Rain 68 20 68 20 100 100 SSW 6 9 29.80 1009 7 11 0.04 1.02
12:53 pm 12:53 Cloudy 67 19.4 67 19.4 100 100 S 6 9 29.77 1008 10 16 0.09 2.29
1:00 pm 13:00 Mostly Cloudy 67 19.4 67 19.4 100 100 SSW 5 7 29.77 1008 10 16 0.00 0.00
1:53 pm 13:53 Mostly Cloudy 68 20 66 18.9 93 93 Calm 29.72 1006 10 16 0.00 0.03
2:00 pm 14:00 Cloudy 69 20.6 66 18.9 90 90 VRB 3 6 29.71 1006 10 16 0.00 0.00
2:53 pm 14:53 Cloudy 72 22.2 67 19.4 84 84 VRB 3 6 29.72 1006 10 16 0.00 0.00
3:00 pm 15:00 Mostly Cloudy 72 22.2 66 18.9 82 82 SSW 7 11 29.71 1006 10 16 0.00 0.00
3:53 pm 15:53 Cloudy 72 22.2 66 18.9 82 82 S 7 11 29.71 1006 10 16 0.00 0.00
4:44 pm 16:44 Mostly Cloudy 73 22.8 66 18.9 79 79 SSW 8 13 29.68 1005 10 16 0.00 0.00
4:53 pm 16:53 Mostly Cloudy 74 23.3 65 18.3 74 74 S 8 13 29.68 1005 10 16 0.00 0.00
5:00 pm 17:00 Partly Cloudy 74 23.3 65 18.3 74 74 S 10 17 29.68 1005 10 16 0.00 0.00
5:53 pm 17:53 Mostly Sunny 75 23.9 64 17.8 69 69 SSW 9 15 29.66 1004 10 16 0.00 0.00
6:53 pm 18:53 Partly Cloudy 75 23.9 64 17.8 69 69 SSW 8 13 29.65 1004 10 16 0.00 0.00
7:53 pm 19:53 Cloudy 73 22.8 66 18.9 79 79 S 5 7 29.66 1005 10 16 0.00 0.00
8:53 pm 20:53 Cloudy 72 22.2 66 18.9 82 82 S 5 7 29.66 1004 10 16 0.00 0.00
9:29 pm 21:29 Mostly Cloudy 71 21.7 66 18.9 84 84 W 5 7 29.68 1005 10 16 0.00 0.00
9:53 pm 21:53 Mostly Cloudy 67 19.4 60 15.6 79 79 N 10 17 29.69 1006 10 16 0.00 0.00
10:04 pm 22:04 Cloudy with Nearby Thunderstorms 65 18.3 61 16.1 87 87 N 6 9 29.68 1005 9 14 0.01 0.25
10:31 pm 22:31 Cloudy with Light Rain 64 17.8 62 16.7 93 93 ENE 7 11 29.74 1007 10 16 0.02 0.51
10:39 pm 22:39 Cloudy with Nearby Thunderstorms 64 17.8 62 16.7 93 93 NE 5 7 29.68 1005 10 16 0.03 0.76
10:53 pm 22:53 Cloudy with Light Rain 64 17.8 62 16.7 93 93 Calm 29.71 1006 7 11 0.05 1.27
11:03 pm 23:03 Cloudy with Thunderstorms 63 17.2 63 17.2 100 100 NE 6 9 29.71 1006 7 11 0.01 0.25
11:24 pm 23:24 Cloudy with Nearby Thunderstorms 64 17.8 63 17.2 96 96 E 3 6 29.68 1005 10 16 0.02 0.51
11:32 pm 23:32 Cloudy with Light Rain 64 17.8 63 17.2 96 96 NE 3 6 29.68 1005 10 16 0.02 0.51
11:53 pm 23:53 Cloudy with Nearby Thunderstorms 63 17.2 63 17.2 100 100 WNW 3 6 29.70 1006 10 16 0.02 0.51

Powered by AerisWeather